DW6162 Weather Reports


time (UTC)temp
C
wind
direction
speed
KPH
gust
KPH
rain 1hr
cm
rain 24hr
cm
rain mn
cm
humidity
%
barometer
mb
20260504025444 6 160 0.0 1.6 0.00 0.00 0.00 66 1011.5
20260504024544 6 160 0.0 1.6 0.00 0.00 0.00 65 1011.5
20260504024503 5 161 0.0 1.6 0.00 0.00 0.00 65 1013.5
20260504023644 6 159 0.0 1.6 0.00 0.00 0.00 65 1011.6
20260504023104 6 161 0.0 1.6 0.00 0.00 0.00 64 1013.6
20260504022744 6 0 0.0 0.0 0.00 0.00 0.00 64 1011.6
20260504021845 6 0 0.0 0.0 0.00 0.00 0.00 63 1011.6
20260504021503 6 161 0.0 1.6 0.00 0.00 0.00 62 1013.6
20260504020945 6 159 0.0 1.6 0.00 0.00 0.00 62 1011.6
20260504020112 6 160 0.0 1.6 0.00 0.00 0.00 61 1013.6
20260504020044 7 160 0.0 1.6 0.00 0.00 0.00 61 1011.6
20260504015144 7 160 0.0 1.6 0.00 0.00 0.00 60 1011.5
20260504014502 7 160 0.0 1.6 0.00 0.00 0.00 59 1013.4
20260504013345 7 165 0.0 1.6 0.00 0.00 0.00 59 1011.4
20260504013103 7 161 0.0 3.2 0.00 0.00 0.00 58 1013.4
20260504012445 7 146 0.0 3.2 0.00 0.00 0.00 58 1011.4
20260504011545 7 112 0.0 1.6 0.00 0.00 0.00 58 1011.3
20260504011503 7 124 0.0 3.2 0.00 0.00 0.00 58 1013.3
20260504010645 7 94 0.0 1.6 0.00 0.00 0.00 57 1011.3
20260504010105 7 94 0.0 3.2 0.00 0.00 0.00 56 1013.3
20260504005744 8 105 1.6 4.8 0.00 0.00 0.00 56 1011.3
20260504004844 8 99 1.6 4.8 0.00 0.00 0.00 55 1011.2
20260504004505 8 86 0.0 3.2 0.00 0.00 0.00 55 1013.3
20260504003945 8 121 1.6 4.8 0.00 0.00 0.00 54 1011.2
20260504003056 8 91 0.0 3.2 0.00 0.00 0.00 54 1013.1
20260504003044 8 119 1.6 3.2 0.00 0.00 0.00 54 1011.1
20260504001504 8 81 0.0 6.4 0.00 0.00 0.00 53 1013.1
20260504001245 9 117 1.6 8.0 0.00 0.00 0.00 51 1011.0
20260504000346 9 128 3.2 14.5 0.00 0.00 0.00 51 1011.0
20260504000105 8 214 1.6 14.5 0.00 0.00 0.00 51 1013.0
20260503235444 9 123 1.6 9.7 0.00 0.00 0.00 51 1010.8
20260503234504 9 131 0.0 4.8 0.00 0.00 0.00 50 1013.0
20260503233644 10 171 4.8 25.7 0.00 0.00 0.00 47 1011.0
20260503233103 10 344 6.4 27.4 0.00 0.00 0.00 46 1012.9
20260503232744 10 129 4.8 25.7 0.00 0.00 0.00 47 1010.8
20260503231845 10 16 3.2 12.9 0.00 0.00 0.00 46 1011.0
20260503231502 10 25 0.0 12.9 0.00 0.00 0.00 45 1013.0
20260503230945 11 337 4.8 16.1 0.00 0.00 0.00 45 1010.9
20260503230044 11 84 3.2 9.7 0.00 0.00 0.00 45 1010.8
20260503225145 11 59 3.2 14.5 0.00 0.00 0.00 44 1010.7
20260503224503 10 117 4.8 12.9 0.00 0.00 0.00 44 1012.8
20260503224244 11 47 4.8 12.9 0.00 0.00 0.00 44 1010.7
20260503223344 11 356 3.2 12.9 0.00 0.00 0.00 44 1010.7
20260503223103 11 326 1.6 11.3 0.00 0.00 0.00 44 1012.8
20260503222445 11 356 4.8 12.9 0.00 0.00 0.00 44 1010.7
20260503221545 11 10 4.8 17.7 0.00 0.00 0.00 44 1010.6
20260503221502 11 299 6.4 16.1 0.00 0.00 0.00 44 1012.8
20260503220644 11 3 4.8 17.7 0.00 0.00 0.00 44 1010.7
20260503215744 11 353 6.4 17.7 0.00 0.00 0.00 45 1010.7
20260503214844 11 29 4.8 17.7 0.00 0.00 0.00 45 1010.7
20260503214507 10 27 4.8 17.7 0.00 0.00 0.00 45 1012.9
20260503213944 11 255 4.8 17.7 0.00 0.00 0.00 44 1010.6
20260503213103 11 135 1.6 9.7 0.00 0.00 0.00 46 1012.8
20260503213044 11 95 3.2 9.7 0.00 0.00 0.00 45 1010.6
20260503212144 10 330 4.8 17.7 0.00 0.00 0.00 46 1010.5
20260503211503 10 8 3.2 17.7 0.00 0.00 0.00 46 1012.7
20260503210344 11 359 4.8 16.1 0.00 0.00 0.00 45 1010.5
20260503210105 10 146 3.2 11.3 0.00 0.00 0.00 45 1012.9
20260503205444 11 347 6.4 19.3 0.00 0.00 0.00 45 1010.6
20260503204544 11 325 6.4 17.7 0.00 0.00 0.00 45 1010.7
20260503203644 11 344 8.0 25.7 0.00 0.00 0.00 46 1010.7
20260503203102 11 40 6.4 16.1 0.00 0.00 0.00 46 1013.0
20260503202744 10 341 4.8 16.1 0.00 0.00 0.00 45 1010.8
20260503201844 10 58 4.8 17.7 0.00 0.00 0.00 44 1010.7
20260503201502 10 332 3.2 17.7 0.00 0.00 0.00 45 1013.0
20260503200944 10 348 6.4 16.1 0.00 0.00 0.00 45 1010.7
20260503200044 11 32 4.8 16.1 0.00 0.00 0.00 43 1011.1
20260503195144 11 346 4.8 19.3 0.00 0.00 0.00 44 1011.0
20260503194503 10 99 3.2 17.7 0.00 0.00 0.00 43 1013.4
20260503193344 11 326 8.0 19.3 0.00 0.00 0.00 43 1011.2
20260503193104 11 248 8.0 19.3 0.00 0.00 0.00 44 1013.6
20260503192444 11 330 6.4 19.3 0.00 0.00 0.00 45 1011.2
20260503191544 10 340 8.0 22.5 0.00 0.00 0.00 45 1011.3
20260503191503 10 309 8.0 22.5 0.00 0.00 0.00 46 1013.7
20260503190644 11 351 6.4 25.7 0.00 0.00 0.00 47 1011.5
20260503190105 10 25 9.7 25.7 0.00 0.00 0.00 46 1013.9
20260503185744 10 329 6.4 17.7 0.00 0.00 0.00 46 1011.5
20260503184844 10 333 8.0 17.7 0.00 0.00 0.00 52 1011.8
20260503184503 9 283 4.8 16.1 0.00 0.00 0.00 48 1014.2
20260503183944 9 336 6.4 16.1 0.00 0.00 0.00 50 1011.9
20260503183107 9 343 6.4 12.9 0.00 0.00 0.00 49 1014.4
20260503183044 9 320 6.4 14.5 0.00 0.00 0.00 49 1012.0
20260503182145 10 319 4.8 12.9 0.00 0.00 0.00 48 1011.9
20260503181506 10 343 6.4 19.3 0.00 0.00 0.00 47 1014.2
20260503181244 10 331 6.4 19.3 0.00 0.00 0.00 47 1012.0
20260503180346 11 346 6.4 17.7 0.00 0.00 0.00 45 1011.7
20260503180109 10 314 6.4 17.7 0.00 0.00 0.00 45 1014.2
20260503175444 11 337 6.4 16.1 0.00 0.00 0.00 47 1011.8
20260503174545 10 352 8.0 16.1 0.00 0.00 0.00 50 1012.0
20260503174503 10 330 8.0 16.1 0.00 0.00 0.00 47 1014.4
20260503173644 10 321 6.4 14.5 0.00 0.00 0.00 47 1012.1
20260503173111 9 333 6.4 16.1 0.00 0.00 0.00 50 1014.6
20260503172744 10 335 6.4 17.7 0.00 0.00 0.00 45 1012.2
20260503171844 10 327 8.0 19.3 0.00 0.00 0.00 46 1012.2
20260503171502 10 354 6.4 16.1 0.00 0.00 0.00 49 1014.7
20260503150344 7 357 6.4 17.7 0.00 0.00 0.00 54 1013.1
20260503130644 3 343 4.8 12.9 0.00 0.00 0.00 70 1013.4
20260503130104 3 95 3.2 6.4 0.00 0.00 0.00 70 1016.1
20260503090344 0 331 3.2 6.4 0.00 0.00 0.00 88 1012.5
20260503081603 0 312 3.2 9.7 0.00 0.00 0.00 86 1015.0
20260503072444 0 321 3.2 9.7 0.00 0.00 0.00 85 1012.1
20260503071615 0 325 1.6 6.4 0.00 0.00 0.00 85 1014.8
20260503071544 0 305 3.2 6.4 0.00 0.00 0.00 85 1012.1
20260503070644 0 324 3.2 11.3 0.00 0.00 0.00 85 1012.1
20260503054603 0 231 1.6 6.4 0.00 0.00 0.00 83 1015.1
20260503054544 0 300 1.6 6.4 0.00 0.00 0.00 83 1012.4
20260503053646 0 278 0.0 3.2 0.00 0.00 0.00 83 1012.4
20260503053004 0 300 0.0 1.6 0.00 0.00 0.00 82 1015.2
20260503052743 0 299 0.0 1.6 0.00 0.00 0.00 82 1012.5
20260503051844 0 300 0.0 3.2 0.00 0.00 0.00 81 1012.5
20260503051603 0 299 0.0 3.2 0.00 0.00 0.00 81 1015.3
20260503050944 0 288 0.0 3.2 0.00 0.00 0.00 81 1012.6
20260503050044 0 296 1.6 6.4 0.00 0.00 0.00 80 1012.7
20260503050010 0 280 0.0 6.4 0.00 0.00 0.00 80 1015.4
20260503045144 0 318 1.6 6.4 0.00 0.00 0.00 80 1012.7
20260503044243 0 297 1.6 6.4 0.00 0.00 0.00 78 1012.6
20260503043343 0 327 1.6 4.8 0.00 0.00 0.00 78 1012.7
20260503043004 0 326 1.6 4.8 0.00 0.00 0.00 78 1015.4
20260503041603 0 316 1.6 6.4 0.00 0.00 0.00 77 1015.6
20260503041544 1 321 3.2 4.8 0.00 0.00 0.00 77 1012.8
20260503040643 1 324 3.2 6.4 0.00 0.00 0.00 76 1012.9
20260503040005 1 328 1.6 6.4 0.00 0.00 0.00 77 1015.7
20260503035744 1 317 3.2 6.4 0.00 0.00 0.00 77 1013.0
20260503034844 1 320 1.6 4.8 0.00 0.00 0.00 76 1013.0
20260503034603 1 321 0.0 4.8 0.00 0.00 0.00 76 1015.7
20260503033944 1 305 1.6 8.0 0.00 0.00 0.00 76 1012.9
20260503033044 1 331 3.2 8.0 0.00 0.00 0.00 75 1013.1
20260503033007 1 310 1.6 8.0 0.00 0.00 0.00 75 1015.6
20260503032144 1 322 4.8 12.9 0.00 0.00 0.00 75 1013.1
20260503031608 1 316 3.2 9.7 0.00 0.00 0.00 74 1015.6
20260503031244 1 318 3.2 8.0 0.00 0.03 0.00 74 1013.0